weather.gov     
National Weather Service

Regional Weather Roundup
NWS Homepage
This page is being discontinued on March 12, 2014.
The same data is available at this site. Please update your bookmarks.
Thank you, and we apologize for the inconvenience.
Please send an email to SR-SRH.Webmaster@noaa.gov with any concerns.


Current Version
Previous Version:    01  02  03  04  05  06  07  08  09  10  11  12  13  14  15  16  17  18  19  20  21  22  23  24  25  26  27  28  29  30  
   31  32  33  34  35  36  37  38  39  40  41  42  43  44  45  46  47  48  49  50  51  52  53  
[Printable]
488
ASUS45 KPSR 241800
RWRAZ

PRELIMINARY ARIZONA REGIONAL HOURLY WEATHER ROUNDUP
NATIONAL WEATHER SERVICE PHOENIX AZ
1100 AM MST MON NOV 24 2014

NOTE: FAIR INDICATES FEW OR NO CLOUDS BELOW 12,000 FEET WITH NO
SIGNIFICANT WEATHER AND/OR OBSTRUCTIONS TO VISIBILITY.

AZZ001>003-036-241900-
NORTHWEST ARIZONA

CITY           SKY/WX    TMP DP  RH WIND       PRES   REMARKS
KINGMAN        SUNNY     52   8  17 N8        30.36R
6HR MIN TEMP:  24; 6HR MAX TEMP:  52;

$$

AZZ004>008-015-016-018-241900-
NORTH CENTRAL ARIZONA

CITY           SKY/WX    TMP DP  RH WIND       PRES   REMARKS
GRAND CANYON   SUNNY     42   3  19 NW9G21    30.30R
6HR MIN TEMP:   2; 6HR MAX TEMP:  42;

PRESCOTT       SUNNY     46   3  17 N9        30.31S
6HR MIN TEMP:  22; 6HR MAX TEMP:  46;

FLAGSTAFF      NOT AVBL
PAYSON         SUNNY     50  -6  10 VRB5      30.26S
$$

AZZ009>014-017-241900-
NORTHEAST ARIZONA

CITY           SKY/WX    TMP DP  RH WIND       PRES   REMARKS
WINSLOW        NOT AVBL
SAINT JOHNS    SUNNY     39   4  23 W8        30.25F WCI  33
6HR MIN TEMP:  15; 6HR MAX TEMP:  39;

SHOW LOW       SUNNY     37  -2  18 NW12      30.28S WCI  30
$$

AZZ023-241900-
GREATER PHOENIX AREA

CITY           SKY/WX    TMP DP  RH WIND       PRES   REMARKS
PHOENIX        MOSUNNY   61  11  14 SW5       30.23S
6HR MIN TEMP:  42; 6HR MAX TEMP:  61;

BUCKEYE          N/A     63   5  10 NE7       30.26S
GLENDALE       MOSUNNY   64  10  12 NW6       30.25F
DEER VALLEY    SUNNY     64   1   8 CALM      30.22F
6HR MIN TEMP:  39; 6HR MAX TEMP:  64;

SCOTTSDALE     SUNNY     58  10  15 S3        30.24F
6HR MIN TEMP:  40; 6HR MAX TEMP:  59;

MESA-GATEWAY   MOSUNNY   55   7  14 CALM      30.25F
CHANDLER       SUNNY     59  10  14 VRB5      30.24F
$$

AZZ027-028-241900-
SOUTHWEST MARICOPA COUNTY AND PINAL COUNTY

CITY           SKY/WX    TMP DP  RH WIND       PRES   REMARKS
CASA GRANDE    SUNNY     57   9  14 CALM      30.25S
6HR MIN TEMP:  34; 6HR MAX TEMP:  57;

$$

AZZ503-504-507>509-241900-
SOUTHEAST ARIZONA

CITY           SKY/WX    TMP DP  RH WIND       PRES   REMARKS
TUCSON         SUNNY     54   8  16 VRB5      30.25F
6HR MIN TEMP:  33; 6HR MAX TEMP:  54;

DAVIS-MONTHAN  SUNNY     56   0  10 S5        30.22F
6HR MIN TEMP:  33; 6HR MAX TEMP:  56;

NOGALES        SUNNY     53   5  14 VRB5      30.22S
6HR MIN TEMP:  26; 6HR MAX TEMP:  53;

SIERRA VISTA   MOSUNNY   52  -6   9 NE5       30.24S
SAFFORD        SUNNY     49   1  14 VRB5      30.21F
6HR MIN TEMP:  25; 6HR MAX TEMP:  50;

$$

AZZ020-021-025-026-031-241900-
SOUTHWEST ARIZONA

CITY           SKY/WX    TMP DP  RH WIND       PRES   REMARKS
YUMA           MOSUNNY   67  11  11 NW12      30.27S
6HR MIN TEMP:  53; 6HR MAX TEMP:  67;

$$

CAZ031-033-041-043-047-048-061-241900-
SOUTHERN CALIFORNIA

CITY           SKY/WX    TMP DP  RH WIND       PRES   REMARKS
DOWNTOWN L.A.  SUNNY     71  21  15 CALM      30.23R
6HR MIN TEMP:  53; 6HR MAX TEMP:  71;

L.A. AIRPORT   PTSUNNY   71  14  11 NE5       30.24R
6HR MIN TEMP:  56; 6HR MAX TEMP:  71;

SAN DIEGO      SUNNY     71  17  12 CALM      30.23R
6HR MIN TEMP:  51; 6HR MAX TEMP:  71;

BURBANK        SUNNY     69  20  15 CALM      30.24R
6HR MIN TEMP:  54; 6HR MAX TEMP:  69;

ONTARIO        PTSUNNY   74   9   8 NE21G31   30.25R
6HR MIN TEMP:  45; 6HR MAX TEMP:  74;

RIVERSIDE      SUNNY     70  13  11 E5        30.27R
6HR MIN TEMP:  45; 6HR MAX TEMP:  70;

PALM SPRINGS   MOSUNNY   74   8   8 N9        30.31S
6HR MIN TEMP:  50; 6HR MAX TEMP:  75;

EL CENTRO NAS  PTSUNNY   68  22  17 NW6       30.29S
6HR MIN TEMP:  42; 6HR MAX TEMP:  68;

IMPERIAL       SUNNY     65  29  25 CALM      30.29R
6HR MIN TEMP:  42; 6HR MAX TEMP:  65;

BLYTHE         SUNNY     60  12  15 CALM      30.30S
6HR MIN TEMP:  42; 6HR MAX TEMP:  60;

$$

NVZ020-UTZ003-241900-
SOUTHERN NEVADA-UTAH

CITY           SKY/WX    TMP DP  RH WIND       PRES   REMARKS
LAS VEGAS      NOT AVBL
SALT LAKE CITY MOSUNNY   41  24  51 N15       30.36R
6HR MIN TEMP:  36; 6HR MAX TEMP:  41; 6HR PCP: TRACE;

$$

NMZ009-TXZ055-241900-
NEW MEXICO-WEST TEXAS

CITY           SKY/WX    TMP DP  RH WIND       PRES   REMARKS
ALBUQUERQUE    MOSUNNY   39   7  26 W7        30.17F WCI  34
6HR MIN TEMP:  26; 6HR MAX TEMP:  39;

EL PASO        MOSUNNY   50   4  15 VRB6      30.17F
6HR MIN TEMP:  34; 6HR MAX TEMP:  50;

$$


........................KEY........................
SKY/WX - SKY CONDITION/WEATHER
TMP    - TEMPERATURE IN FAHRENHEIT
DP     - DEW POINT IN FAHRENHEIT
RH     - RELATIVE HUMIDITY IN PERCENT
WIND   - DIRECTION AND SPEED IN MILES PER HOUR (MPH)
VRB    - VARIABLE WIND DIRECTION
PRES   - MEAN SEA LEVEL PRESSURE IN INCHES OF MERCURY
         F - FALLING PRESSURE   R - RISING PRESSURE
         S - STEADY PRESSURE
VSB    - VISIBILITY IN MILES
HX     - HEAT INDEX IN FAHRENHEIT
WCI    - WIND CHILL INDEX IN FAHRENHEIT
TC     - TEMPERATURE IN CELSIUS WHICH IS ALSO KNOWN AS
         TEMPERATURE IN CENTIGRADE
AFB    - AIR FORCE BASE
         LUKE AFB IS LUKE AIR FORCE BASE
         DAVIS-MONTHAN IS DAVIS-MONTHAN AIR FORCE BASE
NAS    - NAVAL AIR STATION
         EL CENTRO NAS IS EL CENTRO NAVAL AIR STATION
N/A    - NOT AVAILABLE




U.S. Dept. of Commerce
NOAA National Weather Service
1325 East West Highway
Silver Spring, MD 20910
E-mail: w-nws.webmaster@noaa.gov
Page last modified: May 16, 2007
NATIONAL WEATHER SERVICE: for Safety, for Work, for Fun - FOR LIFE